When you browse on this site, cookies collect data to enhance your experience and personalize the content and advertising you see.
Visit our Privacy Policy to learn more. By continuing to use the site, you agree to this use of cookies and data.
  • In Belgium
  • List of Countries
  • For 7 days
  • Water Temperature
  • Satellite Maps
  • Weather Map
  • Weather Widgets
  • user-avatar
    Login

    Hourly Weather Perth

    Today, 22 February, Friday

    Time Temperature Precipitation Wind Pressure Humidity
    00:00 +20°C° 0 mm 2 mps 758 mmHg 86%
    01:00 +20°C° 0 mm 2 mps 758 mmHg 86%
    02:00 +20°C° 0 mm 1 mps 758 mmHg 86%
    03:00 +20°C° 0 mm 1 mps 758 mmHg 87%
    04:00 +20°C° 0 mm 1 mps 758 mmHg 88%
    05:00 +17°C° 0 mm 0 mps 758 mmHg 89%
    06:00 +20°C° 0 mm 1 mps 758 mmHg 84%
    07:00 +21°C° 0 mm 1 mps 758 mmHg 79%
    08:00 +22°C° 0 mm 1 mps 759 mmHg 73%
    09:00 +24°C° 0 mm 2 mps 759 mmHg 64%
    10:00 +26°C° 0 mm 2 mps 759 mmHg 54%
    11:00 +28°C° 0 mm 3 mps 759 mmHg 45%
    12:00 +29°C° 0 mm 3 mps 758 mmHg 42%
    13:00 +29°C° 0 mm 4 mps 758 mmHg 40%
    14:00 +30°C° 0 mm 4 mps 758 mmHg 37%
    15:00 +29°C° 0 mm 4 mps 757 mmHg 39%
    16:00 +28°C° 0 mm 4 mps 757 mmHg 40%
    17:00 +27°C° 0 mm 4 mps 757 mmHg 42%
    18:00 +26°C° 0 mm 3 mps 758 mmHg 51%
    19:00 +24°C° 0 mm 3 mps 758 mmHg 60%
    20:00 +21°C° 0 mm 2 mps 758 mmHg 69%
    21:00 +21°C° 0 mm 2 mps 758 mmHg 73%
    22:00 +20°C° 0 mm 2 mps 759 mmHg 76%
    23:00 +21°C° 0 mm 1 mps 759 mmHg 80%

    Tomorrow, 23 February, Saturday

    Time Temperature Precipitation Wind Pressure Humidity
    00:00 +21°C° 0 mm 1 mps 759 mmHg 81%
    01:00 +20°C° 0 mm 1 mps 759 mmHg 82%
    02:00 +18°C° 0 mm 0 mps 759 mmHg 83%
    03:00 +18°C° 0 mm 0 mps 759 mmHg 84%
    04:00 +18°C° 0 mm 0 mps 759 mmHg 84%
    05:00 +18°C° 0 mm 0 mps 759 mmHg 84%
    06:00 +19°C° 0 mm 0 mps 759 mmHg 80%
    07:00 +20°C° 0 mm 0 mps 760 mmHg 76%
    08:00 +22°C° 0 mm 0 mps 760 mmHg 72%
    09:00 +25°C° 0 mm 1 mps 760 mmHg 66%
    10:00 +27°C° 0 mm 2 mps 760 mmHg 59%
    11:00 +28°C° 0 mm 2 mps 760 mmHg 52%
    12:00 +29°C° 0 mm 3 mps 760 mmHg 50%
    13:00 +29°C° 0 mm 4 mps 759 mmHg 48%
    14:00 +30°C° 0 mm 5 mps 759 mmHg 46%
    15:00 +29°C° 0 mm 5 mps 759 mmHg 49%
    16:00 +28°C° 0 mm 5 mps 759 mmHg 51%
    17:00 +27°C° 0 mm 5 mps 759 mmHg 54%
    18:00 +26°C° 0 mm 4 mps 759 mmHg 61%
    19:00 +24°C° 0 mm 3 mps 760 mmHg 68%
    20:00 +22°C° 0 mm 3 mps 760 mmHg 75%
    21:00 +21°C° 0 mm 2 mps 761 mmHg 78%
    22:00 +21°C° 0 mm 2 mps 761 mmHg 80%
    23:00 +21°C° 0 mm 2 mps 762 mmHg 82%

    Day after tomorrow, 24 February, Sunday

    Time Temperature Precipitation Wind Pressure Humidity
    00:00 +20°C° 0 mm 2 mps 761 mmHg 84%
    01:00 +20°C° 0 mm 2 mps 761 mmHg 86%
    02:00 +20°C° 0 mm 2 mps 761 mmHg 88%
    03:00 +20°C° 0 mm 2 mps 761 mmHg 89%
    04:00 +20°C° 0 mm 2 mps 761 mmHg 90%
    05:00 +19°C° 0 mm 2 mps 761 mmHg 91%
    06:00 +21°C° 0 mm 2 mps 762 mmHg 84%
    07:00 +23°C° 0 mm 2 mps 762 mmHg 77%
    08:00 +24°C° 0 mm 3 mps 762 mmHg 70%
    09:00 +26°C° 0 mm 2 mps 762 mmHg 59%
    10:00 +29°C° 0 mm 2 mps 762 mmHg 49%
    11:00 +32°C° 0 mm 2 mps 762 mmHg 39%
    12:00 +32°C° 0 mm 2 mps 762 mmHg 38%
    13:00 +34°C° 0 mm 3 mps 761 mmHg 37%
    14:00 +35°C° 0 mm 4 mps 760 mmHg 36%
    15:00 +34°C° 0 mm 4 mps 760 mmHg 40%
    16:00 +32°C° 0 mm 5 mps 760 mmHg 43%
    17:00 +30°C° 0 mm 6 mps 760 mmHg 46%
    18:00 +28°C° 0 mm 5 mps 760 mmHg 52%
    19:00 +26°C° 0 mm 5 mps 761 mmHg 57%
    20:00 +25°C° 0 mm 4 mps 761 mmHg 62%
    21:00 +23°C° 0 mm 4 mps 761 mmHg 62%
    22:00 +23°C° 0 mm 4 mps 761 mmHg 63%
    23:00 +23°C° 0 mm 4 mps 762 mmHg 63%

    25 February, Monday

    Time Temperature Precipitation Wind Pressure Humidity
    00:00 +23°C° 0 mm 4 mps 761 mmHg 64%
    01:00 +23°C° 0 mm 4 mps 761 mmHg 65%
    02:00 +25°C° 0 mm 5 mps 761 mmHg 66%
    03:00 +23°C° 0 mm 5 mps 761 mmHg 66%
    04:00 +23°C° 0 mm 5 mps 761 mmHg 67%
    05:00 +23°C° 0 mm 5 mps 761 mmHg 67%
    06:00 +23°C° 0 mm 5 mps 761 mmHg 64%
    07:00 +25°C° 0 mm 5 mps 762 mmHg 60%
    08:00 +26°C° 0 mm 5 mps 762 mmHg 57%
    09:00 +29°C° 0 mm 4 mps 762 mmHg 50%
    10:00 +31°C° 0 mm 3 mps 761 mmHg 42%
    11:00 +35°C° 0 mm 2 mps 761 mmHg 34%
    12:00 +37°C° 0 mm 3 mps 760 mmHg 31%
    13:00 +39°C° 0 mm 3 mps 759 mmHg 28%
    14:00 +40°C° 0 mm 3 mps 759 mmHg 25%
    15:00 +40°C° 0 mm 4 mps 758 mmHg 27%
    16:00 +37°C° 0 mm 5 mps 758 mmHg 30%
    17:00 +36°C° 0 mm 5 mps 758 mmHg 32%
    18:00 +34°C° 0 mm 5 mps 758 mmHg 37%
    19:00 +32°C° 0 mm 5 mps 759 mmHg 43%
    20:00 +29°C° 0 mm 4 mps 759 mmHg 48%
    21:00 +28°C° 0 mm 4 mps 759 mmHg 50%
    22:00 +27°C° 0 mm 3 mps 759 mmHg 53%
    23:00 +26°C° 0 mm 2 mps 760 mmHg 56%

    26 February, Tuesday

    Time Temperature Precipitation Wind Pressure Humidity
    00:00 +26°C° 0 mm 2 mps 759 mmHg 57%
    01:00 +26°C° 0 mm 2 mps 759 mmHg 58%
    02:00 +26°C° 0 mm 2 mps 759 mmHg 60%
    03:00 +25°C° 0 mm 2 mps 759 mmHg 63%
    04:00 +25°C° 0 mm 2 mps 759 mmHg 66%
    05:00 +24°C° 0 mm 2 mps 758 mmHg 69%
    06:00 +26°C° 0 mm 2 mps 759 mmHg 63%
    07:00 +27°C° 0 mm 1 mps 759 mmHg 58%
    08:00 +28°C° 0 mm 1 mps 759 mmHg 53%
    09:00 +31°C° 0 mm 2 mps 759 mmHg 46%
    10:00 +34°C° 0 mm 2 mps 759 mmHg 39%
    11:00 +37°C° 0 mm 3 mps 758 mmHg 32%
    12:00 +36°C° 0 mm 4 mps 758 mmHg 33%
    13:00 +36°C° 0 mm 4 mps 758 mmHg 34%
    14:00 +36°C° 0 mm 5 mps 757 mmHg 35%
    15:00 +35°C° 0 mm 5 mps 757 mmHg 38%
    16:00 +33°C° 0 mm 5 mps 757 mmHg 42%
    17:00 +32°C° 0 mm 5 mps 757 mmHg 46%
    18:00 +29°C° 0 mm 4 mps 758 mmHg 55%
    19:00 +27°C° 0 mm 4 mps 758 mmHg 64%
    20:00 +25°C° 0 mm 3 mps 759 mmHg 74%
    21:00 +25°C° 0 mm 3 mps 759 mmHg 75%
    22:00 +24°C° 0 mm 3 mps 759 mmHg 77%
    23:00 +24°C° 0 mm 3 mps 759 mmHg 79%

    27 February, Wednesday

    Time Temperature Precipitation Wind Pressure Humidity
    00:00 +24°C° 0 mm 3 mps 759 mmHg 77%
    01:00 +24°C° 0 mm 3 mps 759 mmHg 75%
    02:00 +24°C° 0 mm 2 mps 759 mmHg 73%
    03:00 +23°C° 0 mm 2 mps 759 mmHg 75%
    04:00 +23°C° 0 mm 2 mps 759 mmHg 77%
    05:00 +23°C° 0 mm 2 mps 759 mmHg 78%
    06:00 +24°C° 0 mm 3 mps 759 mmHg 73%
    07:00 +25°C° 0 mm 3 mps 759 mmHg 69%
    08:00 +26°C° 0 mm 3 mps 760 mmHg 64%
    09:00 +28°C° 0 mm 3 mps 759 mmHg 56%
    10:00 +30°C° 0 mm 2 mps 759 mmHg 49%
    11:00 +32°C° 0 mm 2 mps 759 mmHg 41%
    12:00 +34°C° 0 mm 3 mps 758 mmHg 40%
    13:00 +35°C° 0 mm 3 mps 758 mmHg 38%
    14:00 +35°C° 0 mm 3 mps 757 mmHg 37%
    15:00 +35°C° 0 mm 4 mps 757 mmHg 39%
    16:00 +34°C° 0 mm 5 mps 757 mmHg 41%
    17:00 +33°C° 0 mm 5 mps 756 mmHg 43%
    18:00 +30°C° 0 mm 5 mps 757 mmHg 48%
    19:00 +29°C° 0 mm 4 mps 757 mmHg 53%
    20:00 +27°C° 0 mm 3 mps 758 mmHg 58%
    21:00 +27°C° 0 mm 3 mps 758 mmHg 58%
    22:00 +27°C° 0 mm 3 mps 758 mmHg 58%
    23:00 +26°C° 0 mm 2 mps 758 mmHg 58%
    Show more